This demonstration page uses our WeatherBlox Daily Observations layout. Learn more.

39.92423, -83.80882

Hourly Observations for April 16, 2015

Temp ( °F °C ) Dew Point ( °F °C ) Humidity (%) Winds ( mph kmh ) Pressure ( in mb ) Visibility ( mi km ) Precip ( " mm )
12:56 am 00:56 Mostly Cloudy 55 12.7 34 1.1 45 45 E 9 15 30.21 1023 7 11.26538 0 0
1:56 am 01:56 Cloudy 57 13.8 31 -0.5 38 38 E 16 26 30.19 1022 8 12.87472 0 0
2:56 am 02:56 Mostly Clear 55 12.7 32 0 42 42 E 13 20 30.17 1022 8 12.87472 0 0
3:56 am 03:56 Mostly Cloudy 55 12.7 36 2.2 49 49 E 13 20 30.15 1021 8 12.87472 0 0
4:56 am 04:56 Cloudy 55 12.7 40 4.4 57 57 ESE 9 15 30.14 1021 8 12.87472 0 0
5:56 am 05:56 Cloudy 55 12.7 42 5.5 62 62 ESE 12 19 30.14 1021 7 11.26538 0 0
6:56 am 06:56 Mostly Cloudy 55 12.7 42 5.5 62 62 ESE 9 15 30.15 1021 7 11.26538 0 0
7:16 am 07:16 Cloudy 55 13 43 6 63 63 ESE 12 19 30.15 1021 7 11.26538 0 0
7:56 am 07:56 Cloudy with Haze 56 13.3 44 6.6 64 64 SE 13 20 30.16 1021 6 9.65604 0 0
8:21 am 08:21 Cloudy with Light Rain 54 12 48 9 82 82 SE 9 15 30.18 1022 2.5 4.02335 0.01 0.254
8:30 am 08:30 Cloudy with Haze 54 12 46 8 77 77 SE 10 17 30.18 1022 5 8.0467 0.01 0.254
8:56 am 08:56 Cloudy with Light Rain 53 11.6 48 8.8 83 83 ESE 13 20 30.16 1021 3 4.82802 0.02 0.508
9:56 am 09:56 Cloudy with Haze 55 12.7 49 9.4 81 81 SE 12 19 30.16 1021 6 9.65604 0 0.0254
10:56 am 10:56 Cloudy with Haze 56 13.3 50 10 81 81 SSE 14 22 30.15 1021 6 9.65604 0 0
11:56 am 11:56 Cloudy with Haze 58 14.4 51 10.5 78 78 SSE 14 22 30.16 1021 6 9.65604 0 0
12:56 pm 12:56 Cloudy with Haze 58 14.4 52 11.1 81 81 SSE 10 17 30.15 1021 6 9.65604 0 0
1:56 pm 13:56 Cloudy with Haze 60 15.5 55 12.7 84 84 SSE 13 20 30.13 1020 6 9.65604 0 0
2:56 pm 14:56 Cloudy with Haze 64 17.7 57 13.8 78 78 SE 10 17 30.1 1019 6 9.65604 0 0
3:33 pm 15:33 Cloudy with Haze 64 18 57 14 78 78 S 8 13 30.12 1020 6 9.65604 0 0
3:56 pm 15:56 Cloudy with Haze 65 18.3 58 14.4 78 78 SE 12 19 30.09 1019 6 9.65604 0 0
4:49 pm 16:49 Mostly Cloudy with Haze 66 19 59 15 78 78 S 6 9 30.06 1018 6 9.65604 0 0
4:56 pm 16:56 Mostly Cloudy with Haze 66 18.8 59 15 79 79 S 7 11 30.08 1019 6 9.65604 0 0
5:56 pm 17:56 Cloudy with Haze 68 20 60 15.5 75 75 SSE 8 13 30.08 1019 6 9.65604 0 0
6:18 pm 18:18 Cloudy with Haze 66 19 61 16 83 83 SSE 6 9 30.06 1018 6 9.65604 0 0
6:56 pm 18:56 Cloudy with Mist and Fog 65 18.3 61 16.1 87 87 SE 7 11 30.08 1019 6 9.65604 0 0
7:56 pm 19:56 Partly Cloudy with Mist and Fog 64 17.7 60 15.5 87 87 SSE 6 9 30.07 1018 6 9.65604 0 0
8:56 pm 20:56 Mostly Cloudy with Light Rain 63 17.2 61 16.1 93 93 Calm 30.09 1019 4 6.43736 0 0.0254
9:56 pm 21:56 Cloudy with Mist and Fog 60 15.5 60 15.5 100 100 SE 5 7 30.1 1019 6 9.65604 0.01 0.254
10:56 pm 22:56 Cloudy 62 16.6 60 15.5 93 93 S 7 11 30.1 1019 7 11.26538 0 0
11:56 pm 23:56 Mostly Cloudy 62 16.6 60 15.5 93 93 SW 6 9 30.09 1019 7 11.26538 0 0

Powered by AerisWeather